Showing default

FLOCK 4G 7, 62624

Orbit data source: Space-Track

FLOCK 4G 7, 62624 is a payload satellite owned by Planet (US) in SSO that was launched on Tue, 14 Jan 2025 UTC via an FALCON 9 launch vehicle from the Air Force Western Test Range (AFWTR). Payload-class satellites include a variety of spacecraft equipped with specific instruments for various scientific and technological missions. These include communications satellites like Starlink; space stations such as the ISS; scientific satellites like the Hubble; Earth observation satellites from companies like Planet Labs, Umbra, and HawkEye 360; GPS; miniature CubeSats for education and research; and military/defense satellites.

Loading next visibility...
Identifier
62624, 2025-009R
Orbit
SSO
Country
Flag of USUS
Related business
Manufacturer
Planet
Mission
Operational Commercial Imaging
Bus & Motor
CUBESAT 3U, Unknown motor
Mass
5.7 kg wet, 5.7 kg dry
Launch date (UTC)
2025-01-14 (1 year ago)
Launch vehicle
FALCON 9
Launch site
Air Force Western Test Range (AFWTR)
Object type
Payload
Rocket body
Debris
Shape & HBR
Box + 2 Pan, 1.0 m
Radar Cross Section
0.072 m², Medium (>0.1 m² and < 1m²)

Expand to show TLE details & history
Last TLE update: 7 hours ago

TLE from 7 hours ago
0 FLOCK 4G 7
1 62624U 25009R   26126.50067458  .00009160  00000-0  33318-3 0  9995
2 62624  97.3942 208.0833 0004318 107.8618 252.3093 15.28460245 72535
Epoch: 2026-05-06T12:00Z
TLE epoch observation values (Epoch: 2026-05-06T12:00:58.283Z)
Latitude
-0.00004°
Longitude
163.48019°
Altitude
484.418 km
Speed
7.623 km/s
True Right ascension
13h 52m 19s
True Declination
0° 00' 00"
Sunlit
Object was in full shadow at epoch
Visualization orbit readout
Latitude
Unknown
Longitude
Unknown
Altitude
Unknown
Speed
Unknown
Apparent Right ascension
Unknown
Apparent Declination
Unknown
Sunlit
N/A
Visualization observer readout
Local Sidereal Time
03:08:54
Azimuth
Unknown
Elevation
Unknown
Doppler factor
Unknown
Orbital elements
Apogee altitude
480.329 km
Perigee altitude
474.408 km
Semi-major axis
6,855.506 km
Eccentricity
0.00043
Inclination
97.3942°
RAAN
208.0833°
Arg. of periapsis
107.8618°
True anomaly
252.26217°
Mean anomaly
252.3093°
Eccentric anomaly
252.28573°
Mean motion
3.8237 °/min
Orbital period
94.15 mins
BSTAR
0.00033318
Loading maneuver chart data...
Computing Atmospheric mass density...
Loading historical data...
Loading historical data...
Loading historical data...
Loading historical data...
Loading historical data...
Loading historical data...
Loading historical data...

Documentation

Showing up to 5 results
|